Back to catalog

STARLINK-5745

AliveCommunicationsVLEO
NORAD 55575·PAYLOAD·🇺🇸 United States

Launched Feb 12, 2023 from Cape Canaveral Space Force Station

Loading…

Next Passes (next 24 hours)

TLE

FreshSource: CelesTrak SupGP

Epoch: Sep 14, 2026, 21:39 UTC

1 55575C 23020G   26257.90256944  .00011310  00000+0  40963-3 0  2572
2 55575  43.0044  20.1145 0001931 284.7267 289.1513 15.27572746    13

Track STARLINK-5745 in real time with AllMySat

Download on the App Store